Tracking 19854 objects as of 22-Sep-2019
HD Live streaming from Space Station
objects crossing your sky now

OPS 9381 (GGTS)

Track OPS 9381 (GGTS) now!
OPS 9381 (GGTS) is classified as:


NORAD ID: 2207
Int'l Code: 1966-053A
Perigee: 33,648.6 km
Apogee: 33,870.9 km
Inclination: 4.2 °
Period: 1,333.4 minutes
Semi major axis: 40130 km
RCS: 0.8912 m2 (medium)
Launch date: June 16, 1966
Source: United States (US)
Launch site: AIR FORCE EASTERN TEST RANGE (AFETR)
aabbcc
Your satellite tracking list
Your tracking list is empty




NASA's NSSDC Master Catalog

Two Line Element Set (TLE):
1  2207U 66053A   19264.01408446 -.00000128  00000-0  00000+0 0  9991
2  2207   4.2231  58.3854 0027700 175.9083 208.3124  1.07990979209582
Source of the keplerian elements: AFSPC